TimeEST,TemperatureF,Dew PointF,Humidity,Sea Level PressureIn,VisibilityMPH,Wind Direction,Wind SpeedMPH,Gust SpeedMPH,PrecipitationIn,Events,Conditions,WindDirDegrees,DateUTC
12:15 AM,28.4,22.1,77,30.38,10.0,Calm,Calm,-,N/A,,Clear,0,2013-03-09 05:15:00
12:34 AM,28.8,22.3,77,30.37,10.0,SE,3.5,-,N/A,,Clear,130,2013-03-09 05:34:00
12:54 AM,28.8,22.5,77,30.37,10.0,ESE,3.5,-,N/A,,Clear,120,2013-03-09 05:54:00
1:15 AM,30.0,23.0,75,30.37,10.0,Calm,Calm,-,N/A,,Clear,0,2013-03-09 06:15:00
1:34 AM,29.1,22.1,75,30.37,10.0,SSE,3.5,-,N/A,,Clear,160,2013-03-09 06:34:00
1:54 AM,28.9,22.5,77,30.37,10.0,Calm,Calm,-,N/A,,Clear,0,2013-03-09 06:54:00
2:15 AM,28.9,22.3,76,30.37,10.0,SE,3.5,-,N/A,,Clear,140,2013-03-09 07:15:00
2:34 AM,28.4,22.3,78,30.37,10.0,South,3.5,-,N/A,,Clear,170,2013-03-09 07:34:00
2:54 AM,28.2,22.3,78,30.36,10.0,SE,3.5,-,N/A,,Clear,140,2013-03-09 07:54:00
3:15 AM,27.1,21.7,80,30.34,10.0,SSE,3.5,-,N/A,,Clear,150,2013-03-09 08:15:00
3:34 AM,27.7,22.6,81,30.33,10.0,SE,4.6,-,N/A,,Clear,130,2013-03-09 08:34:00
3:54 AM,27.0,22.3,83,30.32,10.0,SSE,3.5,-,N/A,,Clear,150,2013-03-09 08:54:00
4:15 AM,27.5,22.6,82,30.32,10.0,SE,3.5,-,N/A,,Clear,130,2013-03-09 09:15:00
4:34 AM,26.6,22.1,83,30.32,10.0,SE,4.6,-,N/A,,Clear,130,2013-03-09 09:34:00
4:54 AM,26.4,22.5,85,30.33,10.0,SE,3.5,-,N/A,,Clear,140,2013-03-09 09:54:00
5:15 AM,27.0,23.2,86,30.32,10.0,SE,3.5,-,N/A,,Clear,130,2013-03-09 10:15:00
5:34 AM,26.4,22.6,86,30.33,7.0,SE,3.5,-,N/A,,Clear,140,2013-03-09 10:34:00
5:55 AM,26.2,22.8,87,30.34,7.0,SE,3.5,-,N/A,,Clear,140,2013-03-09 10:55:00
6:14 AM,26.4,23.0,87,30.35,7.0,Calm,Calm,-,N/A,,Clear,0,2013-03-09 11:14:00
6:34 AM,26.8,23.0,86,30.34,10.0,ESE,3.5,-,N/A,,Clear,110,2013-03-09 11:34:00
6:55 AM,26.6,23.0,86,30.33,7.0,ESE,3.5,-,N/A,,Clear,120,2013-03-09 11:55:00
7:14 AM,26.4,22.8,86,30.32,7.0,ESE,4.6,-,N/A,,Clear,120,2013-03-09 12:14:00
7:34 AM,27.5,23.7,86,30.31,7.0,SE,4.6,-,N/A,,Clear,130,2013-03-09 12:34:00
7:55 AM,29.5,25.3,85,30.32,10.0,SE,4.6,-,N/A,,Clear,140,2013-03-09 12:55:00
8:14 AM,30.2,25.5,83,30.32,10.0,SE,4.6,-,N/A,,Clear,130,2013-03-09 13:14:00
8:34 AM,32.0,26.2,79,30.32,10.0,SSE,5.8,-,N/A,,Clear,150,2013-03-09 13:34:00
8:55 AM,33.4,25.5,73,30.33,10.0,SSE,8.1,-,N/A,,Clear,160,2013-03-09 13:55:00
9:14 AM,34.7,26.1,71,30.33,10.0,SSE,8.1,-,N/A,,Clear,150,2013-03-09 14:14:00
9:34 AM,35.1,26.2,70,30.33,10.0,SSE,6.9,-,N/A,,Clear,160,2013-03-09 14:34:00
9:54 AM,35.8,27.0,70,30.32,10.0,SSE,8.1,-,N/A,,Clear,160,2013-03-09 14:54:00
10:14 AM,36.7,27.3,69,30.31,10.0,SSE,10.4,-,N/A,,Clear,150,2013-03-09 15:14:00
10:35 AM,37.6,27.5,67,30.30,10.0,SSE,9.2,-,N/A,,Clear,150,2013-03-09 15:35:00
10:54 AM,37.9,27.1,65,30.30,10.0,South,9.2,-,N/A,,Clear,170,2013-03-09 15:54:00
11:14 AM,39.2,27.9,64,30.30,10.0,SE,11.5,-,N/A,,Clear,140,2013-03-09 16:14:00
11:35 AM,39.4,27.5,62,30.28,10.0,SE,15.0,-,N/A,,Clear,130,2013-03-09 16:35:00
11:54 AM,39.9,26.6,59,30.27,10.0,SE,13.8,-,N/A,,Clear,140,2013-03-09 16:54:00
12:14 PM,41.2,27.3,58,30.28,10.0,SSE,10.4,-,N/A,,Clear,150,2013-03-09 17:14:00
12:35 PM,41.4,27.3,57,30.27,10.0,SE,12.7,-,N/A,,Clear,140,2013-03-09 17:35:00
12:54 PM,41.5,27.3,57,30.26,10.0,SSE,11.5,-,N/A,,Clear,160,2013-03-09 17:54:00
1:14 PM,42.8,27.7,55,30.24,10.0,South,13.8,18.4,N/A,,Clear,180,2013-03-09 18:14:00
1:34 PM,42.8,27.9,56,30.22,10.0,SE,12.7,-,N/A,,Clear,140,2013-03-09 18:34:00
1:54 PM,41.7,27.3,57,30.21,10.0,SSE,8.1,-,N/A,,Clear,150,2013-03-09 18:54:00
2:15 PM,42.4,27.7,56,30.20,10.0,SE,13.8,-,N/A,,Scattered Clouds,140,2013-03-09 19:15:00
2:34 PM,42.4,26.8,54,30.18,10.0,ESE,13.8,-,N/A,,Mostly Cloudy,120,2013-03-09 19:34:00
2:54 PM,42.6,25.9,52,30.17,10.0,SSE,10.4,-,N/A,,Mostly Cloudy,150,2013-03-09 19:54:00
3:15 PM,41.5,26.2,55,30.16,10.0,SSE,10.4,-,N/A,,Overcast,150,2013-03-09 20:15:00
3:34 PM,41.0,27.0,57,30.15,10.0,SE,12.7,-,N/A,,Overcast,130,2013-03-09 20:34:00
3:54 PM,41.0,26.2,56,30.14,10.0,SE,15.0,-,N/A,,Overcast,140,2013-03-09 20:54:00
4:15 PM,40.5,27.0,59,30.14,10.0,ESE,13.8,-,N/A,,Overcast,120,2013-03-09 21:15:00
4:34 PM,40.5,27.1,59,30.14,10.0,SSE,11.5,-,N/A,,Overcast,150,2013-03-09 21:34:00
4:54 PM,40.3,27.7,61,30.13,10.0,SE,11.5,-,N/A,,Overcast,140,2013-03-09 21:54:00
5:15 PM,40.6,28.2,61,30.12,10.0,SE,12.7,-,N/A,,Mostly Cloudy,140,2013-03-09 22:15:00
5:34 PM,41.0,28.2,60,30.11,10.0,SE,10.4,-,N/A,,Scattered Clouds,140,2013-03-09 22:34:00
5:54 PM,40.3,28.4,63,30.11,10.0,SE,8.1,-,N/A,,Mostly Cloudy,130,2013-03-09 22:54:00
6:15 PM,40.1,28.8,64,30.10,10.0,SE,11.5,-,N/A,,Overcast,130,2013-03-09 23:15:00
6:34 PM,39.7,28.4,64,30.09,10.0,SE,12.7,-,N/A,,Overcast,130,2013-03-09 23:34:00
7:14 PM,39.2,28.4,65,30.06,10.0,SE,12.7,-,N/A,,Mostly Cloudy,130,2013-03-10 00:14:00
7:34 PM,39.4,28.8,66,30.06,10.0,SE,13.8,-,N/A,,Mostly Cloudy,130,2013-03-10 00:34:00
7:55 PM,39.4,29.1,67,30.06,10.0,SE,9.2,-,N/A,,Mostly Cloudy,140,2013-03-10 00:55:00
8:14 PM,39.6,29.3,67,30.07,10.0,SSE,9.2,17.3,N/A,Rain,Light Rain,150,2013-03-10 01:14:00
8:34 PM,39.4,29.3,67,30.07,10.0,SE,9.2,-,N/A,,Overcast,140,2013-03-10 01:34:00
8:55 PM,39.2,29.1,67,30.07,10.0,SSE,10.4,-,N/A,,Overcast,150,2013-03-10 01:55:00
9:14 PM,39.0,29.1,68,30.06,10.0,SSE,11.5,-,N/A,,Overcast,150,2013-03-10 02:14:00
9:34 PM,38.5,29.5,70,30.05,10.0,SE,15.0,-,N/A,,Overcast,130,2013-03-10 02:34:00
9:55 PM,38.5,29.3,70,30.05,10.0,SE,13.8,-,N/A,,Overcast,140,2013-03-10 02:55:00
10:14 PM,38.3,29.1,70,30.04,10.0,SE,12.7,17.3,N/A,,Overcast,140,2013-03-10 03:14:00
10:34 PM,38.3,29.3,70,30.03,10.0,SE,12.7,-,N/A,,Overcast,140,2013-03-10 03:34:00
10:55 PM,38.5,29.3,70,30.02,10.0,SE,10.4,-,N/A,,Overcast,140,2013-03-10 03:55:00
11:14 PM,38.8,29.3,69,30.03,10.0,SE,10.4,-,N/A,,Overcast,140,2013-03-10 04:14:00
11:34 PM,38.8,29.7,70,30.02,10.0,SE,6.9,-,N/A,,Overcast,140,2013-03-10 04:34:00
11:55 PM,38.3,29.7,71,30.01,10.0,SE,6.9,-,N/A,,Scattered Clouds,140,2013-03-10 04:55:00